Time,TemperatureF,DewpointF,PressureIn,WindDirection,WindDirectionDegrees,WindSpeedMPH,WindSpeedGustMPH,Humidity,HourlyPrecipIn,Conditions,Clouds,dailyrainin,SoftwareType,DateUTC
2013-07-09 00:02:00,66.4,63.7,30.04,East,90,0.0,3.0,91,0.00,,,0.17,meteohub,2013-07-09 04:02:00,
2013-07-09 00:03:00,66.4,63.7,30.04,East,90,0.0,3.0,91,0.00,,,0.17,meteohub,2013-07-09 04:03:00,
2013-07-09 00:08:00,66.2,63.9,30.04,South,180,0.0,2.0,92,0.00,,,0.17,meteohub,2013-07-09 04:08:00,
2013-07-09 00:13:00,66.2,63.9,30.04,South,180,0.0,0.0,92,0.00,,,0.00,meteohub,2013-07-09 04:13:00,
2013-07-09 00:18:00,66.2,63.9,30.04,South,180,0.0,0.0,92,0.00,,,0.00,meteohub,2013-07-09 04:18:00,
2013-07-09 00:23:00,66.0,63.7,30.04,South,180,0.0,0.0,92,0.00,,,0.00,meteohub,2013-07-09 04:23:00,
2013-07-09 00:29:00,66.0,64.2,30.04,South,180,0.0,0.0,94,0.00,,,0.00,meteohub,2013-07-09 04:29:00,
2013-07-09 00:34:00,65.8,64.4,30.04,South,180,2.0,0.0,95,0.00,,,0.00,meteohub,2013-07-09 04:34:00,
2013-07-09 00:39:00,65.7,64.4,30.04,SE,135,1.0,0.0,96,0.00,,,0.00,meteohub,2013-07-09 04:39:00,
2013-07-09 00:44:00,65.5,64.2,30.04,South,180,0.0,0.0,96,0.00,,,0.00,meteohub,2013-07-09 04:44:00,
2013-07-09 00:49:00,65.5,64.2,30.04,SE,135,0.0,2.0,96,0.00,,,0.00,meteohub,2013-07-09 04:49:00,
2013-07-09 00:54:00,65.3,64.0,30.04,East,90,0.0,2.0,96,0.00,,,0.00,meteohub,2013-07-09 04:54:00,
2013-07-09 00:59:00,65.3,64.0,30.04,South,180,2.0,2.0,96,0.00,,,0.00,meteohub,2013-07-09 04:59:00,
2013-07-09 01:04:00,65.1,64.0,30.04,NE,45,1.0,1.0,96,0.00,,,0.00,meteohub,2013-07-09 05:04:00,
2013-07-09 01:09:00,65.1,64.0,30.04,SE,135,0.0,2.0,96,0.00,,,0.00,meteohub,2013-07-09 05:09:00,
2013-07-09 01:14:00,65.1,64.0,30.04,SE,135,0.0,2.0,96,0.00,,,0.00,meteohub,2013-07-09 05:14:00,
2013-07-09 01:19:00,64.9,63.5,30.04,SE,135,1.0,2.0,95,0.00,,,0.00,meteohub,2013-07-09 05:19:00,
2013-07-09 01:24:00,64.9,63.5,30.04,West,270,0.0,1.0,95,0.00,,,0.00,meteohub,2013-07-09 05:24:00,
2013-07-09 01:29:00,64.9,63.9,30.04,NW,315,1.0,1.0,96,0.00,,,0.00,meteohub,2013-07-09 05:29:00,
2013-07-09 01:34:00,64.8,63.7,30.04,NW,315,0.0,1.0,96,0.01,,,0.00,meteohub,2013-07-09 05:34:00,
2013-07-09 01:39:00,64.6,63.5,30.04,NW,315,1.0,1.0,96,0.01,,,0.00,meteohub,2013-07-09 05:39:00,
2013-07-09 01:44:00,64.6,63.5,30.04,West,270,0.0,1.0,96,0.01,,,0.01,meteohub,2013-07-09 05:44:00,
2013-07-09 01:49:00,64.4,63.3,30.04,West,270,0.0,1.0,96,0.02,,,0.01,meteohub,2013-07-09 05:49:00,
2013-07-09 01:55:00,64.4,63.3,30.04,West,270,0.0,1.0,96,0.02,,,0.02,meteohub,2013-07-09 05:55:00,
2013-07-09 02:00:00,64.2,63.3,30.04,SW,225,0.0,1.0,97,0.02,,,0.02,meteohub,2013-07-09 06:00:00,
2013-07-09 02:05:00,64.4,63.5,30.04,SW,225,0.0,1.0,97,0.02,,,0.02,meteohub,2013-07-09 06:05:00,
2013-07-09 02:10:00,64.2,63.3,30.05,SW,225,0.0,1.0,97,0.02,,,0.02,meteohub,2013-07-09 06:10:00,
2013-07-09 02:15:00,64.2,63.7,30.04,East,90,0.0,1.0,98,0.02,,,0.02,meteohub,2013-07-09 06:15:00,
2013-07-09 02:20:00,64.4,63.9,30.04,East,90,0.0,1.0,98,0.02,,,0.02,meteohub,2013-07-09 06:20:00,
2013-07-09 02:25:00,64.4,63.9,30.04,East,90,0.0,1.0,98,0.02,,,0.02,meteohub,2013-07-09 06:25:00,
2013-07-09 02:30:00,64.4,63.9,30.04,East,90,0.0,1.0,98,0.02,,,0.02,meteohub,2013-07-09 06:30:00,
2013-07-09 02:35:00,64.4,63.9,30.04,East,90,0.0,0.0,98,0.01,,,0.02,meteohub,2013-07-09 06:35:00,
2013-07-09 02:40:00,64.4,64.0,30.05,SW,225,0.0,0.0,99,0.01,,,0.02,meteohub,2013-07-09 06:40:00,
2013-07-09 02:45:00,64.4,63.9,30.04,North,0,0.0,0.0,98,0.01,,,0.02,meteohub,2013-07-09 06:45:00,
2013-07-09 02:50:00,64.6,64.2,30.04,SE,135,0.0,0.0,99,0.00,,,0.02,meteohub,2013-07-09 06:50:00,
2013-07-09 02:55:00,64.4,64.0,30.04,SE,135,0.0,0.0,99,0.00,,,0.02,meteohub,2013-07-09 06:55:00,
2013-07-09 03:00:00,64.4,64.0,30.04,West,270,0.0,0.0,99,0.00,,,0.02,meteohub,2013-07-09 07:00:00,
2013-07-09 03:05:00,64.6,64.2,30.04,South,180,2.0,0.0,99,0.01,,,0.04,meteohub,2013-07-09 07:05:00,
2013-07-09 03:10:00,64.4,64.0,30.04,South,180,2.0,0.0,99,0.01,,,0.04,meteohub,2013-07-09 07:10:00,
2013-07-09 03:15:00,64.4,64.0,30.04,NE,45,0.0,2.0,99,0.01,,,0.04,meteohub,2013-07-09 07:15:00,
2013-07-09 03:20:00,64.4,64.0,30.04,NE,45,0.0,2.0,99,0.01,,,0.04,meteohub,2013-07-09 07:20:00,
2013-07-09 03:25:00,64.4,64.0,30.03,NE,45,0.0,2.0,99,0.01,,,0.04,meteohub,2013-07-09 07:25:00,
2013-07-09 03:30:00,64.2,63.9,30.03,NW,315,0.0,2.0,99,0.01,,,0.04,meteohub,2013-07-09 07:30:00,
2013-07-09 03:35:00,64.2,63.9,30.04,North,0,0.0,0.0,99,0.01,,,0.04,meteohub,2013-07-09 07:35:00,
2013-07-09 03:40:00,64.2,63.9,30.03,NE,45,0.0,0.0,99,0.01,,,0.04,meteohub,2013-07-09 07:40:00,
2013-07-09 03:46:00,64.2,63.9,30.03,NE,45,0.0,0.0,99,0.01,,,0.04,meteohub,2013-07-09 07:46:00,
2013-07-09 03:52:00,64.2,63.9,30.04,NE,45,0.0,0.0,99,0.01,,,0.04,meteohub,2013-07-09 07:52:00,
2013-07-09 03:57:00,64.0,63.7,30.04,West,270,0.0,0.0,99,0.01,,,0.04,meteohub,2013-07-09 07:57:00,
2013-07-09 04:02:00,64.2,63.9,30.04,West,270,0.0,0.0,99,0.01,,,0.04,meteohub,2013-07-09 08:02:00,
2013-07-09 04:07:00,64.0,63.7,30.04,NW,315,0.0,0.0,99,0.00,,,0.04,meteohub,2013-07-09 08:07:00,
2013-07-09 04:13:00,64.0,63.7,30.04,NW,315,0.0,0.0,99,0.00,,,0.04,meteohub,2013-07-09 08:13:00,
2013-07-09 04:18:00,64.0,63.7,30.05,South,180,0.0,0.0,99,0.00,,,0.04,meteohub,2013-07-09 08:18:00,
2013-07-09 04:23:00,64.0,63.7,30.05,South,180,0.0,0.0,99,0.00,,,0.04,meteohub,2013-07-09 08:23:00,
2013-07-09 04:28:00,64.0,63.7,30.05,South,180,0.0,0.0,99,0.00,,,0.04,meteohub,2013-07-09 08:28:00,
2013-07-09 04:33:00,64.0,63.7,30.05,South,180,0.0,0.0,99,0.00,,,0.04,meteohub,2013-07-09 08:33:00,
2013-07-09 04:38:00,63.9,63.5,30.05,South,180,0.0,0.0,99,0.00,,,0.04,meteohub,2013-07-09 08:38:00,
2013-07-09 04:43:00,63.9,63.5,30.05,South,180,0.0,0.0,99,0.00,,,0.04,meteohub,2013-07-09 08:43:00,
2013-07-09 04:48:00,63.9,63.5,30.05,North,0,0.0,0.0,99,0.00,,,0.04,meteohub,2013-07-09 08:48:00,
2013-07-09 04:53:00,64.0,63.7,30.05,North,0,0.0,0.0,99,0.00,,,0.04,meteohub,2013-07-09 08:53:00,
2013-07-09 04:58:00,64.0,63.7,30.05,NW,315,2.0,0.0,99,0.00,,,0.04,meteohub,2013-07-09 08:58:00,
2013-07-09 05:03:00,64.0,63.7,30.05,NW,315,2.0,0.0,99,0.00,,,0.04,meteohub,2013-07-09 09:03:00,
2013-07-09 05:08:00,64.0,63.7,30.05,NE,45,1.0,2.0,99,0.00,,,0.04,meteohub,2013-07-09 09:08:00,
2013-07-09 05:13:00,63.9,63.5,30.05,NE,45,0.0,2.0,99,0.00,,,0.05,meteohub,2013-07-09 09:13:00,
2013-07-09 05:18:00,63.9,63.5,30.05,NW,315,1.0,3.0,99,0.02,,,0.05,meteohub,2013-07-09 09:18:00,
2013-07-09 05:23:00,63.5,63.1,30.05,North,0,0.0,3.0,99,0.02,,,0.07,meteohub,2013-07-09 09:23:00,
2013-07-09 05:28:00,63.3,63.0,30.05,SE,135,0.0,1.0,99,0.04,,,0.07,meteohub,2013-07-09 09:28:00,
2013-07-09 05:33:00,63.3,63.0,30.06,NW,315,0.0,1.0,99,0.04,,,0.07,meteohub,2013-07-09 09:33:00,
2013-07-09 05:38:00,63.3,63.0,30.06,NW,315,2.0,2.0,99,0.04,,,0.07,meteohub,2013-07-09 09:38:00,
2013-07-09 05:43:00,63.3,63.0,30.06,NW,315,1.0,2.0,99,0.04,,,0.07,meteohub,2013-07-09 09:43:00,
2013-07-09 05:48:00,63.3,63.0,30.06,North,0,1.0,2.0,99,0.04,,,0.07,meteohub,2013-07-09 09:48:00,
2013-07-09 05:53:00,63.3,63.0,30.06,North,0,0.0,2.0,99,0.04,,,0.07,meteohub,2013-07-09 09:53:00,
2013-07-09 05:58:00,63.3,63.0,30.06,North,0,0.0,2.0,99,0.04,,,0.07,meteohub,2013-07-09 09:58:00,
2013-07-09 06:03:00,63.5,63.1,30.06,SW,225,0.0,1.0,99,0.04,,,0.07,meteohub,2013-07-09 10:03:00,
2013-07-09 06:09:00,63.5,63.1,30.06,North,0,0.0,1.0,99,0.04,,,0.07,meteohub,2013-07-09 10:09:00,
2013-07-09 06:14:00,63.7,63.3,30.07,West,270,0.0,0.0,99,0.01,,,0.07,meteohub,2013-07-09 10:14:00,
2013-07-09 06:19:00,63.7,63.3,30.07,West,270,0.0,0.0,99,0.01,,,0.07,meteohub,2013-07-09 10:19:00,
2013-07-09 06:24:00,63.9,63.5,30.07,West,270,0.0,0.0,99,0.01,,,0.07,meteohub,2013-07-09 10:24:00,
2013-07-09 06:29:00,63.9,63.5,30.07,West,270,0.0,0.0,99,0.00,,,0.07,meteohub,2013-07-09 10:29:00,
2013-07-09 06:34:00,64.0,63.7,30.07,West,270,0.0,0.0,99,0.00,,,0.07,meteohub,2013-07-09 10:34:00,
2013-07-09 06:39:00,64.2,63.9,30.07,NW,315,0.0,0.0,99,0.00,,,0.08,meteohub,2013-07-09 10:39:00,
2013-07-09 06:44:00,64.4,64.0,30.07,NE,45,0.0,0.0,99,0.01,,,0.08,meteohub,2013-07-09 10:44:00,
2013-07-09 06:49:00,64.6,64.2,30.07,SE,135,0.0,0.0,99,0.01,,,0.08,meteohub,2013-07-09 10:49:00,
2013-07-09 06:54:00,64.8,64.4,30.08,SE,135,0.0,0.0,99,0.01,,,0.08,meteohub,2013-07-09 10:54:00,
2013-07-09 06:59:00,64.9,64.6,30.08,NE,45,0.0,0.0,99,0.01,,,0.08,meteohub,2013-07-09 10:59:00,
2013-07-09 07:04:00,64.9,64.6,30.08,North,0,0.0,0.0,99,0.01,,,0.08,meteohub,2013-07-09 11:04:00,
2013-07-09 07:09:00,65.3,64.9,30.08,SW,225,0.0,0.0,99,0.01,,,0.08,meteohub,2013-07-09 11:09:00,
2013-07-09 07:14:00,65.3,64.9,30.08,NW,315,0.0,0.0,99,0.01,,,0.08,meteohub,2013-07-09 11:14:00,
2013-07-09 07:19:00,65.3,64.9,30.09,NW,315,0.0,0.0,99,0.01,,,0.08,meteohub,2013-07-09 11:19:00,
2013-07-09 07:24:00,65.3,64.9,30.09,NW,315,2.0,2.0,99,0.01,,,0.08,meteohub,2013-07-09 11:24:00,
2013-07-09 07:29:00,65.1,64.8,30.09,West,270,2.0,2.0,99,0.01,,,0.08,meteohub,2013-07-09 11:29:00,
2013-07-09 07:34:00,65.1,64.8,30.09,NW,315,2.0,2.0,99,0.01,,,0.13,meteohub,2013-07-09 11:34:00,
2013-07-09 07:39:00,64.8,64.4,30.09,NW,315,0.0,3.0,99,0.05,,,0.13,meteohub,2013-07-09 11:39:00,
2013-07-09 07:44:00,64.6,64.2,30.09,NE,45,0.0,2.0,99,0.06,,,0.14,meteohub,2013-07-09 11:44:00,
2013-07-09 07:49:00,64.4,63.9,30.09,NE,45,0.0,2.0,98,0.06,,,0.14,meteohub,2013-07-09 11:49:00,
2013-07-09 07:54:00,64.8,64.2,30.09,SE,135,0.0,1.0,98,0.07,,,0.15,meteohub,2013-07-09 11:54:00,
2013-07-09 07:59:00,64.6,64.0,30.09,South,180,2.0,2.0,98,0.07,,,0.15,meteohub,2013-07-09 11:59:00,
2013-07-09 08:04:00,64.6,64.0,30.09,South,180,2.0,2.0,98,0.07,,,0.15,meteohub,2013-07-09 12:04:00,
2013-07-09 08:09:00,64.8,64.2,30.09,SW,225,0.0,2.0,98,0.07,,,0.15,meteohub,2013-07-09 12:09:00,
2013-07-09 08:14:00,64.8,64.2,30.09,SW,225,0.0,2.0,98,0.07,,,0.15,meteohub,2013-07-09 12:14:00,
2013-07-09 08:19:00,64.8,64.2,30.09,SW,225,1.0,2.0,98,0.07,,,0.15,meteohub,2013-07-09 12:19:00,
2013-07-09 08:24:00,64.8,64.2,30.10,SW,225,0.0,2.0,98,0.08,,,0.17,meteohub,2013-07-09 12:24:00,
2013-07-09 08:29:00,64.8,64.2,30.10,South,180,2.0,2.0,98,0.08,,,0.17,meteohub,2013-07-09 12:29:00,
2013-07-09 08:34:00,64.6,63.7,30.10,South,180,3.0,3.0,97,0.04,,,0.17,meteohub,2013-07-09 12:34:00,
2013-07-09 08:40:00,64.6,64.0,30.10,South,180,2.0,3.0,98,0.04,,,0.17,meteohub,2013-07-09 12:40:00,
2013-07-09 08:45:00,64.8,64.2,30.10,North,0,0.0,4.0,98,0.04,,,0.18,meteohub,2013-07-09 12:45:00,
2013-07-09 08:50:00,64.4,63.0,30.10,South,180,2.0,4.0,95,0.04,,,0.18,meteohub,2013-07-09 12:50:00,
2013-07-09 08:55:00,63.9,62.1,30.10,SE,135,2.0,2.0,94,0.08,,,0.21,meteohub,2013-07-09 12:55:00,
2013-07-09 09:00:00,63.9,62.8,30.10,North,0,0.0,2.0,96,0.08,,,0.21,meteohub,2013-07-09 13:00:00,
2013-07-09 09:05:00,63.7,62.8,30.10,North,0,2.0,2.0,97,0.15,,,0.27,meteohub,2013-07-09 13:05:00,
2013-07-09 09:10:00,63.3,62.2,30.10,NE,45,1.0,2.0,96,0.15,,,0.27,meteohub,2013-07-09 13:10:00,
2013-07-09 09:15:00,63.1,62.1,30.10,NE,45,0.0,2.0,96,0.19,,,0.34,meteohub,2013-07-09 13:15:00,
2013-07-09 09:20:00,63.1,62.2,30.10,NE,45,0.0,2.0,97,0.20,,,0.34,meteohub,2013-07-09 13:20:00,
2013-07-09 09:25:00,63.5,62.6,30.09,NE,45,1.0,2.0,97,0.24,,,0.38,meteohub,2013-07-09 13:25:00,
2013-07-09 09:30:00,63.7,62.8,30.09,East,90,2.0,2.0,97,0.24,,,0.38,meteohub,2013-07-09 13:30:00,
2013-07-09 09:35:00,63.9,63.0,30.09,East,90,2.0,4.0,97,0.26,,,0.43,meteohub,2013-07-09 13:35:00,
2013-07-09 09:40:00,64.0,63.0,30.09,East,90,1.0,4.0,96,0.26,,,0.44,meteohub,2013-07-09 13:40:00,
2013-07-09 09:45:00,64.2,62.8,30.09,NE,45,2.0,4.0,95,0.26,,,0.44,meteohub,2013-07-09 13:45:00,
2013-07-09 09:50:00,64.4,63.0,30.09,SE,135,2.0,4.0,95,0.24,,,0.44,meteohub,2013-07-09 13:50:00,
2013-07-09 09:55:00,64.8,63.0,30.09,SE,135,0.0,2.0,94,0.20,,,0.44,meteohub,2013-07-09 13:55:00,
2013-07-09 10:00:00,65.3,63.5,30.09,ESE,113,2.0,2.0,94,0.20,,,0.44,meteohub,2013-07-09 14:00:00,
2013-07-09 10:05:00,65.7,63.9,30.09,NE,45,0.0,3.0,94,0.15,,,0.46,meteohub,2013-07-09 14:05:00,
2013-07-09 10:10:00,66.2,64.4,30.09,East,90,1.0,3.0,94,0.15,,,0.47,meteohub,2013-07-09 14:10:00,
2013-07-09 10:15:00,66.4,64.2,30.09,NE,45,1.0,3.0,93,0.13,,,0.47,meteohub,2013-07-09 14:15:00,
2013-07-09 10:21:00,66.7,64.6,30.08,NE,45,1.0,2.0,93,0.12,,,0.47,meteohub,2013-07-09 14:21:00,
2013-07-09 10:26:00,66.7,64.6,30.09,NE,45,1.0,2.0,93,0.07,,,0.47,meteohub,2013-07-09 14:26:00,
2013-07-09 10:31:00,66.7,64.6,30.08,East,90,0.0,2.0,93,0.07,,,0.47,meteohub,2013-07-09 14:31:00,
2013-07-09 10:36:00,66.7,64.0,30.08,SE,135,2.0,2.0,91,0.05,,,0.47,meteohub,2013-07-09 14:36:00,
2013-07-09 10:41:00,66.7,64.0,30.08,East,90,2.0,2.0,91,0.05,,,0.47,meteohub,2013-07-09 14:41:00,
2013-07-09 10:46:00,66.9,64.2,30.09,East,90,2.0,4.0,91,0.04,,,0.47,meteohub,2013-07-09 14:46:00,
2013-07-09 10:51:00,67.3,64.6,30.09,East,90,0.0,4.0,91,0.04,,,0.47,meteohub,2013-07-09 14:51:00,
2013-07-09 10:56:00,67.6,64.9,30.09,NE,45,2.0,3.0,91,0.04,,,0.47,meteohub,2013-07-09 14:56:00,
2013-07-09 11:01:00,68.4,65.7,30.08,East,90,0.0,3.0,91,0.04,,,0.47,meteohub,2013-07-09 15:01:00,
2013-07-09 11:06:00,68.7,65.7,30.08,NE,45,0.0,2.0,90,0.01,,,0.47,meteohub,2013-07-09 15:06:00,
2013-07-09 11:11:00,69.1,65.7,30.08,SE,135,3.0,3.0,89,0.01,,,0.47,meteohub,2013-07-09 15:11:00,
2013-07-09 11:16:00,68.9,64.9,30.08,East,90,2.0,3.0,87,0.00,,,0.47,meteohub,2013-07-09 15:16:00,
2013-07-09 11:21:00,68.5,64.6,30.09,East,90,4.0,4.0,87,0.00,,,0.47,meteohub,2013-07-09 15:21:00,
2013-07-09 11:26:00,68.7,64.9,30.08,NE,45,2.0,4.0,88,0.00,,,0.47,meteohub,2013-07-09 15:26:00,
2013-07-09 11:31:00,68.9,64.9,30.08,South,180,2.0,4.0,87,0.00,,,0.47,meteohub,2013-07-09 15:31:00,
2013-07-09 11:36:00,69.1,65.1,30.08,East,90,2.0,4.0,87,0.00,,,0.47,meteohub,2013-07-09 15:36:00,
2013-07-09 11:41:00,69.6,65.8,30.08,East,90,1.0,4.0,88,0.00,,,0.47,meteohub,2013-07-09 15:41:00,
2013-07-09 11:46:00,70.3,66.2,30.08,NE,45,0.0,4.0,87,0.00,,,0.47,meteohub,2013-07-09 15:46:00,
2013-07-09 11:51:00,71.1,66.7,30.08,NE,45,1.0,4.0,86,0.00,,,0.47,meteohub,2013-07-09 15:51:00,
2013-07-09 11:57:00,71.8,67.1,30.08,NE,45,1.0,2.0,85,0.00,,,0.47,meteohub,2013-07-09 15:57:00,
2013-07-09 12:02:00,72.0,66.6,30.08,East,90,2.0,2.0,83,0.00,,,0.47,meteohub,2013-07-09 16:02:00,
2013-07-09 12:07:00,72.1,66.7,30.08,NE,45,0.0,2.0,83,0.00,,,0.47,meteohub,2013-07-09 16:07:00,
2013-07-09 12:12:00,72.1,67.5,30.07,East,90,0.0,2.0,85,0.00,,,0.47,meteohub,2013-07-09 16:12:00,
2013-07-09 12:17:00,72.5,67.5,30.07,East,90,2.0,2.0,84,0.00,,,0.47,meteohub,2013-07-09 16:17:00,
2013-07-09 12:22:00,72.7,67.6,30.07,NE,45,0.0,2.0,84,0.00,,,0.47,meteohub,2013-07-09 16:22:00,
2013-07-09 12:27:00,73.0,67.6,30.07,NE,45,2.0,3.0,83,0.00,,,0.47,meteohub,2013-07-09 16:27:00,
2013-07-09 12:32:00,73.4,67.6,30.07,SE,135,0.0,3.0,82,0.00,,,0.47,meteohub,2013-07-09 16:32:00,
2013-07-09 12:37:00,72.9,67.1,30.07,East,90,2.0,3.0,82,0.00,,,0.47,meteohub,2013-07-09 16:37:00,
2013-07-09 12:42:00,72.7,66.9,30.07,East,90,2.0,4.0,82,0.00,,,0.47,meteohub,2013-07-09 16:42:00,
2013-07-09 12:47:00,72.5,67.1,30.07,East,90,2.0,4.0,83,0.00,,,0.47,meteohub,2013-07-09 16:47:00,
2013-07-09 12:52:00,72.1,67.1,30.07,NE,45,2.0,4.0,84,0.00,,,0.47,meteohub,2013-07-09 16:52:00,
2013-07-09 12:57:00,71.8,67.1,30.07,NE,45,2.0,4.0,85,0.00,,,0.47,meteohub,2013-07-09 16:57:00,
2013-07-09 13:02:00,71.8,67.3,30.07,East,90,1.0,3.0,86,0.00,,,0.47,meteohub,2013-07-09 17:02:00,
2013-07-09 13:07:00,71.6,66.9,30.07,East,90,2.0,3.0,85,0.00,,,0.47,meteohub,2013-07-09 17:07:00,
2013-07-09 13:12:00,71.2,66.9,30.07,East,90,0.0,3.0,86,0.00,,,0.47,meteohub,2013-07-09 17:12:00,
2013-07-09 13:17:00,71.2,67.5,30.07,SE,135,1.0,2.0,88,0.00,,,0.47,meteohub,2013-07-09 17:17:00,
2013-07-09 13:22:00,71.2,67.5,30.07,East,90,0.0,2.0,88,0.00,,,0.47,meteohub,2013-07-09 17:22:00,
2013-07-09 13:27:00,71.1,67.3,30.07,SE,135,0.0,2.0,88,0.00,,,0.47,meteohub,2013-07-09 17:27:00,
2013-07-09 13:32:00,71.2,67.5,30.07,East,90,1.0,2.0,88,0.00,,,0.47,meteohub,2013-07-09 17:32:00,
2013-07-09 13:37:00,71.4,68.0,30.07,SE,135,1.0,2.0,89,0.00,,,0.47,meteohub,2013-07-09 17:37:00,
2013-07-09 13:42:00,71.2,67.5,30.07,East,90,2.0,2.0,88,0.00,,,0.47,meteohub,2013-07-09 17:42:00,
2013-07-09 13:47:00,71.2,67.5,30.07,SE,135,2.0,2.0,88,0.00,,,0.47,meteohub,2013-07-09 17:47:00,
2013-07-09 13:52:00,71.2,67.5,30.07,SE,135,0.0,2.0,88,0.00,,,0.47,meteohub,2013-07-09 17:52:00,
2013-07-09 13:57:00,71.4,68.0,30.07,East,90,0.0,2.0,89,0.00,,,0.47,meteohub,2013-07-09 17:57:00,
2013-07-09 14:02:00,71.6,67.8,30.06,NE,45,1.0,2.0,88,0.00,,,0.47,meteohub,2013-07-09 18:02:00,
2013-07-09 14:07:00,71.6,67.8,30.06,East,90,2.0,2.0,88,0.00,,,0.47,meteohub,2013-07-09 18:07:00,
2013-07-09 14:12:00,71.4,68.0,30.06,SE,135,1.0,2.0,89,0.00,,,0.47,meteohub,2013-07-09 18:12:00,
2013-07-09 14:17:00,71.4,68.0,30.06,East,90,2.0,2.0,89,0.00,,,0.47,meteohub,2013-07-09 18:17:00,
2013-07-09 14:22:00,71.4,67.6,30.06,East,90,2.0,2.0,88,0.00,,,0.47,meteohub,2013-07-09 18:22:00,
2013-07-09 14:27:00,71.4,67.6,30.06,East,90,2.0,2.0,88,0.00,,,0.47,meteohub,2013-07-09 18:27:00,
2013-07-09 14:33:00,71.4,67.6,30.06,SE,135,1.0,2.0,88,0.00,,,0.47,meteohub,2013-07-09 18:33:00,
2013-07-09 14:38:00,71.6,67.8,30.06,East,90,2.0,3.0,88,0.00,,,0.47,meteohub,2013-07-09 18:38:00,
2013-07-09 14:43:00,72.0,67.8,30.06,East,90,2.0,4.0,87,0.00,,,0.47,meteohub,2013-07-09 18:43:00,
2013-07-09 14:48:00,72.1,68.0,30.06,East,90,2.0,4.0,87,0.00,,,0.47,meteohub,2013-07-09 18:48:00,
2013-07-09 14:54:00,71.6,67.5,30.06,East,90,2.0,4.0,87,0.00,,,0.47,meteohub,2013-07-09 18:54:00,
2013-07-09 14:59:00,71.2,67.8,30.05,East,90,2.0,4.0,89,0.00,,,0.47,meteohub,2013-07-09 18:59:00,
2013-07-09 15:04:00,70.9,67.5,30.05,SE,135,2.0,4.0,89,0.00,,,0.47,meteohub,2013-07-09 19:04:00,
2013-07-09 15:09:00,70.5,67.5,30.05,South,180,4.0,4.0,90,0.00,,,0.47,meteohub,2013-07-09 19:09:00,
2013-07-09 15:14:00,70.7,67.3,30.05,SE,135,2.0,4.0,89,0.00,,,0.47,meteohub,2013-07-09 19:14:00,
2013-07-09 15:19:00,70.9,67.5,30.05,SE,135,2.0,4.0,89,0.00,,,0.47,meteohub,2013-07-09 19:19:00,
2013-07-09 15:24:00,71.2,67.5,30.05,East,90,2.0,4.0,88,0.00,,,0.47,meteohub,2013-07-09 19:24:00,
2013-07-09 15:29:00,71.6,67.8,30.05,SE,135,2.0,4.0,88,0.00,,,0.47,meteohub,2013-07-09 19:29:00,
2013-07-09 15:34:00,72.3,67.8,30.05,East,90,2.0,4.0,86,0.00,,,0.47,meteohub,2013-07-09 19:34:00,
2013-07-09 15:39:00,73.2,68.2,30.05,SE,135,2.0,3.0,84,0.00,,,0.47,meteohub,2013-07-09 19:39:00,
2013-07-09 15:44:00,73.6,67.8,30.05,NE,45,2.0,3.0,82,0.00,,,0.47,meteohub,2013-07-09 19:44:00,
2013-07-09 15:49:00,73.2,67.1,30.05,SE,135,2.0,3.0,81,0.00,,,0.47,meteohub,2013-07-09 19:49:00,
2013-07-09 15:54:00,73.0,67.6,30.05,SE,135,2.0,3.0,83,0.00,,,0.47,meteohub,2013-07-09 19:54:00,
2013-07-09 15:59:00,73.2,67.5,30.05,ESE,113,2.0,3.0,82,0.00,,,0.47,meteohub,2013-07-09 19:59:00,
2013-07-09 16:04:00,72.5,67.1,30.05,SE,135,3.0,3.0,83,0.00,,,0.47,meteohub,2013-07-09 20:04:00,
2013-07-09 16:09:00,72.0,67.3,30.05,SE,135,2.0,4.0,85,0.00,,,0.47,meteohub,2013-07-09 20:09:00,
2013-07-09 16:14:00,71.8,67.1,30.05,East,90,3.0,4.0,85,0.00,,,0.47,meteohub,2013-07-09 20:14:00,
2013-07-09 16:19:00,72.0,67.5,30.05,NE,45,1.0,3.0,86,0.00,,,0.47,meteohub,2013-07-09 20:19:00,
2013-07-09 16:24:00,71.8,67.3,30.05,East,90,2.0,4.0,86,0.00,,,0.47,meteohub,2013-07-09 20:24:00,
2013-07-09 16:29:00,71.6,67.5,30.05,SE,135,1.0,4.0,87,0.00,,,0.47,meteohub,2013-07-09 20:29:00,
2013-07-09 16:34:00,71.4,67.3,30.05,NE,45,2.0,4.0,87,0.00,,,0.47,meteohub,2013-07-09 20:34:00,
2013-07-09 16:39:00,71.4,67.3,30.05,SE,135,2.0,4.0,87,0.00,,,0.47,meteohub,2013-07-09 20:39:00,
2013-07-09 16:44:00,71.1,66.9,30.05,East,90,2.0,2.0,87,0.00,,,0.47,meteohub,2013-07-09 20:44:00,
2013-07-09 16:49:00,70.9,67.1,30.05,SE,135,1.0,3.0,88,0.00,,,0.47,meteohub,2013-07-09 20:49:00,
2013-07-09 16:54:00,70.9,67.5,30.05,East,90,2.0,3.0,89,0.00,,,0.47,meteohub,2013-07-09 20:54:00,
2013-07-09 16:59:00,70.7,67.3,30.05,East,90,2.0,3.0,89,0.00,,,0.47,meteohub,2013-07-09 20:59:00,
2013-07-09 17:05:00,70.3,66.9,30.05,SE,135,2.0,3.0,89,0.00,,,0.47,meteohub,2013-07-09 21:05:00,
2013-07-09 17:10:00,70.0,66.6,30.05,East,90,2.0,4.0,89,0.00,,,0.47,meteohub,2013-07-09 21:10:00,
2013-07-09 17:15:00,69.8,66.7,30.05,NE,45,2.0,3.0,90,0.00,,,0.47,meteohub,2013-07-09 21:15:00,
2013-07-09 17:20:00,69.6,66.6,30.05,East,90,2.0,3.0,90,0.00,,,0.47,meteohub,2013-07-09 21:20:00,
2013-07-09 17:25:00,69.6,66.9,30.05,South,180,2.0,3.0,91,0.00,,,0.47,meteohub,2013-07-09 21:25:00,
2013-07-09 17:30:00,69.3,66.2,30.05,East,90,4.0,4.0,90,0.00,,,0.47,meteohub,2013-07-09 21:30:00,
2013-07-09 17:35:00,68.9,66.6,30.06,SE,135,2.0,4.0,92,0.00,,,0.47,meteohub,2013-07-09 21:35:00,
2013-07-09 17:40:00,68.4,66.0,30.05,SE,135,4.0,4.0,92,0.00,,,0.47,meteohub,2013-07-09 21:40:00,
2013-07-09 17:45:00,68.0,65.7,30.06,ENE,68,2.0,4.0,92,0.00,,,0.47,meteohub,2013-07-09 21:45:00,
2013-07-09 17:50:00,67.6,65.5,30.06,East,90,3.0,4.0,93,0.00,,,0.47,meteohub,2013-07-09 21:50:00,
2013-07-09 17:55:00,67.5,65.3,30.06,ESE,113,2.0,4.0,93,0.00,,,0.47,meteohub,2013-07-09 21:55:00,
2013-07-09 18:00:00,67.3,65.5,30.06,SE,135,2.0,4.0,94,0.00,,,0.47,meteohub,2013-07-09 22:00:00,
2013-07-09 18:05:00,67.1,65.3,30.06,ESE,113,2.0,4.0,94,0.00,,,0.47,meteohub,2013-07-09 22:05:00,
2013-07-09 18:10:00,66.7,64.9,30.06,SE,135,2.0,3.0,94,0.00,,,0.47,meteohub,2013-07-09 22:10:00,
2013-07-09 18:15:00,66.6,65.1,30.06,East,90,3.0,3.0,95,0.00,,,0.47,meteohub,2013-07-09 22:15:00,
2013-07-09 18:20:00,66.6,65.1,30.06,East,90,2.0,2.0,95,0.00,,,0.47,meteohub,2013-07-09 22:20:00,
2013-07-09 18:25:00,66.4,64.9,30.06,East,90,2.0,2.0,95,0.00,,,0.47,meteohub,2013-07-09 22:25:00,
2013-07-09 18:30:00,66.2,64.8,30.06,SE,135,2.0,3.0,95,0.00,,,0.47,meteohub,2013-07-09 22:30:00,
2013-07-09 18:36:00,66.0,64.6,30.06,SE,135,2.0,3.0,95,0.00,,,0.47,meteohub,2013-07-09 22:36:00,
2013-07-09 18:41:00,66.0,64.8,30.06,SE,135,2.0,6.0,96,0.00,,,0.47,meteohub,2013-07-09 22:41:00,
2013-07-09 18:46:00,65.8,64.6,30.06,South,180,2.0,6.0,96,0.00,,,0.47,meteohub,2013-07-09 22:46:00,
2013-07-09 18:51:00,65.5,64.2,30.06,SE,135,4.0,6.0,96,0.00,,,0.47,meteohub,2013-07-09 22:51:00,
2013-07-09 18:56:00,65.3,64.4,30.06,ENE,68,1.0,6.0,97,0.00,,,0.47,meteohub,2013-07-09 22:56:00,
2013-07-09 19:01:00,65.1,64.2,30.05,SE,135,2.0,6.0,97,0.00,,,0.47,meteohub,2013-07-09 23:01:00,
2013-07-09 19:06:00,65.1,64.2,30.05,SE,135,2.0,6.0,97,0.00,,,0.47,meteohub,2013-07-09 23:06:00,
2013-07-09 19:11:00,64.9,64.0,30.05,SE,135,1.0,6.0,97,0.00,,,0.47,meteohub,2013-07-09 23:11:00,
2013-07-09 19:16:00,64.8,63.9,30.05,East,90,3.0,6.0,97,0.00,,,0.47,meteohub,2013-07-09 23:16:00,
2013-07-09 19:21:00,64.6,63.7,30.05,East,90,4.0,4.0,97,0.00,,,0.47,meteohub,2013-07-09 23:21:00,
2013-07-09 19:26:00,64.6,63.7,30.05,South,180,2.0,4.0,97,0.00,,,0.47,meteohub,2013-07-09 23:26:00,
2013-07-09 19:31:00,64.6,63.7,30.05,SE,135,1.0,4.0,97,0.00,,,0.47,meteohub,2013-07-09 23:31:00,
2013-07-09 19:36:00,64.6,64.0,30.05,East,90,0.0,4.0,98,0.00,,,0.47,meteohub,2013-07-09 23:36:00,
2013-07-09 19:41:00,64.4,63.9,30.06,East,90,1.0,4.0,98,0.00,,,0.47,meteohub,2013-07-09 23:41:00,
2013-07-09 19:46:00,64.4,63.9,30.05,NE,45,2.0,2.0,98,0.00,,,0.47,meteohub,2013-07-09 23:46:00,
2013-07-09 19:51:00,64.2,63.7,30.06,East,90,1.0,2.0,98,0.00,,,0.47,meteohub,2013-07-09 23:51:00,
2013-07-09 19:56:00,64.0,63.5,30.06,East,90,1.0,3.0,98,0.00,,,0.47,meteohub,2013-07-09 23:56:00,
2013-07-09 20:01:00,64.0,63.5,30.06,NE,45,1.0,3.0,98,0.00,,,0.47,meteohub,2013-07-10 00:01:00,
2013-07-09 20:07:00,63.9,63.3,30.06,East,90,0.0,3.0,98,0.00,,,0.47,meteohub,2013-07-10 00:07:00,
2013-07-09 20:12:00,63.9,63.3,30.05,East,90,2.0,3.0,98,0.00,,,0.47,meteohub,2013-07-10 00:12:00,
2013-07-09 20:17:00,63.7,63.1,30.05,East,90,2.0,2.0,98,0.00,,,0.47,meteohub,2013-07-10 00:17:00,
2013-07-09 20:22:00,63.5,63.0,30.06,East,90,0.0,2.0,98,0.00,,,0.47,meteohub,2013-07-10 00:22:00,
2013-07-09 20:27:00,63.5,63.0,30.06,NE,45,1.0,4.0,98,0.00,,,0.47,meteohub,2013-07-10 00:27:00,
2013-07-09 20:32:00,63.5,63.1,30.06,East,90,0.0,4.0,99,0.00,,,0.47,meteohub,2013-07-10 00:32:00,
2013-07-09 20:37:00,63.5,63.0,30.06,East,90,1.0,4.0,98,0.00,,,0.47,meteohub,2013-07-10 00:37:00,
2013-07-09 20:42:00,63.3,63.0,30.06,East,90,3.0,4.0,99,0.00,,,0.47,meteohub,2013-07-10 00:42:00,
2013-07-09 20:47:00,63.3,63.0,30.06,East,90,0.0,4.0,99,0.00,,,0.47,meteohub,2013-07-10 00:47:00,
2013-07-09 20:52:00,63.3,63.0,30.06,SE,135,0.0,4.0,99,0.00,,,0.47,meteohub,2013-07-10 00:52:00,
2013-07-09 20:57:00,63.3,63.0,30.06,East,90,1.0,3.0,99,0.00,,,0.47,meteohub,2013-07-10 00:57:00,
2013-07-09 21:02:00,63.1,62.8,30.06,SE,135,1.0,3.0,99,0.00,,,0.47,meteohub,2013-07-10 01:02:00,
2013-07-09 21:07:00,63.1,62.8,30.06,East,90,0.0,2.0,99,0.00,,,0.47,meteohub,2013-07-10 01:07:00,
2013-07-09 21:12:00,63.1,62.8,30.06,SE,135,2.0,2.0,99,0.00,,,0.47,meteohub,2013-07-10 01:12:00,
2013-07-09 21:17:00,63.1,62.8,30.06,East,90,2.0,2.0,99,0.00,,,0.47,meteohub,2013-07-10 01:17:00,
2013-07-09 21:22:00,63.1,62.8,30.06,SE,135,1.0,2.0,99,0.00,,,0.47,meteohub,2013-07-10 01:22:00,
2013-07-09 21:27:00,63.1,62.8,30.06,East,90,2.0,2.0,99,0.00,,,0.47,meteohub,2013-07-10 01:27:00,
2013-07-09 21:32:00,63.1,62.8,30.07,SE,135,0.0,2.0,99,0.00,,,0.47,meteohub,2013-07-10 01:32:00,
2013-07-09 21:37:00,63.1,62.8,30.06,East,90,1.0,2.0,99,0.00,,,0.47,meteohub,2013-07-10 01:37:00,
2013-07-09 21:42:00,63.0,62.6,30.06,East,90,0.0,2.0,99,0.00,,,0.47,meteohub,2013-07-10 01:42:00,
2013-07-09 21:47:00,63.0,62.6,30.06,East,90,0.0,2.0,99,0.00,,,0.47,meteohub,2013-07-10 01:47:00,
2013-07-09 21:52:00,63.0,62.6,30.06,East,90,0.0,2.0,99,0.00,,,0.47,meteohub,2013-07-10 01:52:00,
2013-07-09 21:57:00,63.0,62.6,30.06,East,90,2.0,2.0,99,0.00,,,0.47,meteohub,2013-07-10 01:57:00,
2013-07-09 22:02:00,62.8,62.4,30.05,East,90,0.0,2.0,99,0.00,,,0.47,meteohub,2013-07-10 02:02:00,
2013-07-09 22:07:00,62.8,62.4,30.06,SE,135,3.0,3.0,99,0.00,,,0.47,meteohub,2013-07-10 02:07:00,
2013-07-09 22:12:00,62.8,62.4,30.06,East,90,0.0,2.0,99,0.00,,,0.47,meteohub,2013-07-10 02:12:00,
2013-07-09 22:17:00,62.8,62.4,30.06,South,180,2.0,3.0,99,0.00,,,0.47,meteohub,2013-07-10 02:17:00,
2013-07-09 22:22:00,62.8,62.4,30.07,NE,45,0.0,3.0,99,0.00,,,0.47,meteohub,2013-07-10 02:22:00,
2013-07-09 22:27:00,62.6,62.2,30.07,SE,135,1.0,2.0,99,0.00,,,0.47,meteohub,2013-07-10 02:27:00,
2013-07-09 22:33:00,62.6,62.2,30.06,East,90,0.0,2.0,99,0.00,,,0.47,meteohub,2013-07-10 02:33:00,
2013-07-09 22:38:00,62.6,62.2,30.07,SE,135,0.0,3.0,99,0.00,,,0.47,meteohub,2013-07-10 02:38:00,
2013-07-09 22:43:00,62.6,62.2,30.07,NE,45,1.0,3.0,99,0.00,,,0.47,meteohub,2013-07-10 02:43:00,
2013-07-09 22:48:00,62.6,62.2,30.07,East,90,0.0,1.0,99,0.00,,,0.47,meteohub,2013-07-10 02:48:00,
2013-07-09 22:53:00,62.4,62.1,30.06,East,90,0.0,1.0,99,0.00,,,0.47,meteohub,2013-07-10 02:53:00,
2013-07-09 22:58:00,62.4,62.1,30.06,SE,135,0.0,1.0,99,0.00,,,0.47,meteohub,2013-07-10 02:58:00,
2013-07-09 23:03:00,62.4,62.1,30.06,East,90,0.0,1.0,99,0.00,,,0.47,meteohub,2013-07-10 03:03:00,
2013-07-09 23:08:00,62.4,62.1,30.06,East,90,0.0,0.0,99,0.00,,,0.47,meteohub,2013-07-10 03:08:00,
2013-07-09 23:13:00,62.2,61.9,30.06,East,90,2.0,2.0,99,0.00,,,0.47,meteohub,2013-07-10 03:13:00,
2013-07-09 23:18:00,62.2,61.9,30.06,SE,135,2.0,2.0,99,0.00,,,0.47,meteohub,2013-07-10 03:18:00,
2013-07-09 23:23:00,62.2,61.9,30.06,SE,135,2.0,2.0,99,0.00,,,0.47,meteohub,2013-07-10 03:23:00,
2013-07-09 23:28:00,62.2,61.9,30.06,East,90,2.0,2.0,99,0.00,,,0.47,meteohub,2013-07-10 03:28:00,
2013-07-09 23:33:00,62.1,61.7,30.06,SE,135,0.0,2.0,99,0.00,,,0.47,meteohub,2013-07-10 03:33:00,
2013-07-09 23:38:00,62.1,61.7,30.06,SE,135,1.0,2.0,99,0.00,,,0.47,meteohub,2013-07-10 03:38:00,
2013-07-09 23:43:00,62.1,61.7,30.06,East,90,1.0,2.0,99,0.00,,,0.47,meteohub,2013-07-10 03:43:00,
2013-07-09 23:48:00,62.1,61.7,30.06,SE,135,0.0,2.0,99,0.00,,,0.47,meteohub,2013-07-10 03:48:00,
2013-07-09 23:53:00,61.9,61.5,30.06,East,90,0.0,2.0,99,0.00,,,0.47,meteohub,2013-07-10 03:53:00,
2013-07-09 23:58:00,61.9,61.5,30.06,East,90,0.0,2.0,99,0.00,,,0.47,meteohub,2013-07-10 03:58:00,